DL2AMT-9 Weather Reports


Display with metric or nautical units.
time (UTC)temp
F
wind
direction
speed
MPH
gust
MPH
rain 1hr
in
rain 24hr
in
rain mn
in
humidity
%
barometer
mb
20260508134904 90 0.0 0.0 0.00 0.00 0.00 25 964.5
20260508113817 88 0.0 0.0 0.00 0.00 0.00 30 980.3
20260508113317 88 0.0 0.0 0.00 0.00 0.00 30 991.3
20260508112316 88 0.0 0.0 0.00 0.00 0.00 30 986.6
20260508111305 87 0.0 0.0 0.00 0.00 0.00 31 976.6
20260508110255 87 0.0 0.0 0.00 0.00 0.00 31 995.5
20260508105755 87 0.0 0.0 0.00 0.00 0.00 32 991.1
20260508105255 88 0.0 0.0 0.00 0.00 0.00 32 974.5
20260508104754 88 0.0 0.0 0.00 0.00 0.00 32 991.0
20260508104242 87 0.0 0.0 0.00 0.00 0.00 33 993.8
20260508103742 86 0.0 0.0 0.00 0.00 0.00 33 993.8
20260508103242 86 0.0 0.0 0.00 0.00 0.00 33 994.0
20260508102742 87 0.0 0.0 0.00 0.00 0.00 33 993.1
20260508102228 87 0.0 0.0 0.00 0.00 0.00 33 992.2
20260508101724 85 0.0 0.0 0.00 0.00 0.00 35 990.6
20260508101224 85 0.0 0.0 0.00 0.00 0.00 35 990.7
20260508100724 84 0.0 0.0 0.00 0.00 0.00 35 990.7
20260508100224 84 0.0 0.0 0.00 0.00 0.00 35 990.7
20260508095724 83 0.0 0.0 0.00 0.00 0.00 35 990.7
20260508095223 83 0.0 0.0 0.00 0.00 0.00 35 990.8
20260508094723 83 0.0 0.0 0.00 0.00 0.00 34 990.8
20260508094222 83 0.0 0.0 0.00 0.00 0.00 34 989.7
20260508093722 83 0.0 0.0 0.00 0.00 0.00 34 992.1
20260508093222 82 0.0 0.0 0.00 0.00 0.00 35 992.9
20260508092722 82 0.0 0.0 0.00 0.00 0.00 34 992.5
20260508092218 81 0.0 0.0 0.00 0.00 0.00 35 989.0
20260508091712 81 0.0 0.0 0.00 0.00 0.00 35 987.4
20260508091204 79 0.0 0.0 0.00 0.00 0.00 35 991.3
20260508090704 78 0.0 0.0 0.00 0.00 0.00 36 991.1
20260508085704 76 0.0 0.0 0.00 0.00 0.00 37 987.6
20260508085204 75 0.0 0.0 0.00 0.00 0.00 36 987.7
20260508084704 75 0.0 0.0 0.00 0.00 0.00 37 988.4
20260508084203 74 0.0 0.0 0.00 0.00 0.00 36 988.4
20260508081151 71 0.0 0.0 0.00 0.00 0.00 35 979.2
20260508080651 71 0.0 0.0 0.00 0.00 0.00 35 979.2
20260508075637 71 0.0 0.0 0.00 0.00 0.00 33 973.7
20260508075129 69 0.0 0.0 0.00 0.00 0.00 33 973.2
20260508074629 72 0.0 0.0 0.00 0.00 0.00 33 973.2
20260508074129 75 0.0 0.0 0.00 0.00 0.00 32 973.2
20260508073629 81 0.0 0.0 0.00 0.00 0.00 32 973.3
20260508073129 85 0.0 0.0 0.00 0.00 0.00 36 973.2
20260508072629 83 0.0 0.0 0.00 0.00 0.00 35 973.1
20260508072129 83 0.0 0.0 0.00 0.00 0.00 35 973.2
20260508071629 83 0.0 0.0 0.00 0.00 0.00 36 973.1
20260508071129 84 0.0 0.0 0.00 0.00 0.00 36 973.0
20260508070629 84 0.0 0.0 0.00 0.00 0.00 36 973.0
20260508070129 84 0.0 0.0 0.00 0.00 0.00 36 972.9
20260508065629 85 0.0 0.0 0.00 0.00 0.00 35 972.9
20260508065129 86 0.0 0.0 0.00 0.00 0.00 37 972.9
20260508064628 86 0.0 0.0 0.00 0.00 0.00 39 972.9
20260508064128 84 0.0 0.0 0.00 0.00 0.00 36 972.8
20260508063628 84 0.0 0.0 0.00 0.00 0.00 36 972.8
20260508063128 84 0.0 0.0 0.00 0.00 0.00 36 972.7
20260508062628 85 0.0 0.0 0.00 0.00 0.00 36 972.6
20260508062129 85 0.0 0.0 0.00 0.00 0.00 36 972.6
20260508061628 85 0.0 0.0 0.00 0.00 0.00 36 972.5
20260508061128 84 0.0 0.0 0.00 0.00 0.00 36 972.4
20260508060628 83 0.0 0.0 0.00 0.00 0.00 36 972.5
20260508060128 84 0.0 0.0 0.00 0.00 0.00 35 972.4
20260508055628 84 0.0 0.0 0.00 0.00 0.00 36 972.5
20260508055128 84 0.0 0.0 0.00 0.00 0.00 35 972.4
20260508054628 84 0.0 0.0 0.00 0.00 0.00 35 972.4
20260508054128 84 0.0 0.0 0.00 0.00 0.00 35 972.3
20260508053628 84 0.0 0.0 0.00 0.00 0.00 36 972.4
20260508053128 84 0.0 0.0 0.00 0.00 0.00 35 972.5
20260508052628 84 0.0 0.0 0.00 0.00 0.00 36 972.4
20260508052128 83 0.0 0.0 0.00 0.00 0.00 36 972.3
20260508051628 83 0.0 0.0 0.00 0.00 0.00 36 972.3
20260508051128 84 0.0 0.0 0.00 0.00 0.00 35 972.3
20260508050628 83 0.0 0.0 0.00 0.00 0.00 35 972.3
20260508050128 84 0.0 0.0 0.00 0.00 0.00 35 972.3
20260508045628 84 0.0 0.0 0.00 0.00 0.00 36 972.2
20260508045128 84 0.0 0.0 0.00 0.00 0.00 35 972.2
20260508044628 84 0.0 0.0 0.00 0.00 0.00 35 972.1
20260508044128 84 0.0 0.0 0.00 0.00 0.00 36 972.0
20260508043628 84 0.0 0.0 0.00 0.00 0.00 36 972.0
20260508043127 84 0.0 0.0 0.00 0.00 0.00 35 972.0
20260508042628 84 0.0 0.0 0.00 0.00 0.00 35 971.9
20260508042127 84 0.0 0.0 0.00 0.00 0.00 35 971.9
20260508041627 84 0.0 0.0 0.00 0.00 0.00 36 971.9
20260508041128 84 0.0 0.0 0.00 0.00 0.00 35 971.9
20260508040628 84 0.0 0.0 0.00 0.00 0.00 36 971.9
20260508040127 84 0.0 0.0 0.00 0.00 0.00 36 971.8
20260508035627 84 0.0 0.0 0.00 0.00 0.00 36 971.8
20260508035127 84 0.0 0.0 0.00 0.00 0.00 36 971.8
20260508034627 84 0.0 0.0 0.00 0.00 0.00 35 971.7
20260508034128 84 0.0 0.0 0.00 0.00 0.00 36 971.7
20260508033628 84 0.0 0.0 0.00 0.00 0.00 35 971.8
20260508033127 84 0.0 0.0 0.00 0.00 0.00 35 971.8
20260508032628 84 0.0 0.0 0.00 0.00 0.00 35 971.7
20260508032128 84 0.0 0.0 0.00 0.00 0.00 35 971.7
20260508031627 84 0.0 0.0 0.00 0.00 0.00 35 971.7
20260508031127 84 0.0 0.0 0.00 0.00 0.00 35 971.8
20260508030628 84 0.0 0.0 0.00 0.00 0.00 35 971.8
20260508030128 84 0.0 0.0 0.00 0.00 0.00 36 971.7
20260508025628 84 0.0 0.0 0.00 0.00 0.00 36 971.7
20260508025127 84 0.0 0.0 0.00 0.00 0.00 35 971.8
20260508024627 84 0.0 0.0 0.00 0.00 0.00 35 971.7
20260508024127 84 0.0 0.0 0.00 0.00 0.00 35 971.8
20260508023627 84 0.0 0.0 0.00 0.00 0.00 35 971.8
20260508023127 84 0.0 0.0 0.00 0.00 0.00 35 971.7
20260508022627 84 0.0 0.0 0.00 0.00 0.00 35 971.8
20260508022127 84 0.0 0.0 0.00 0.00 0.00 36 971.8
20260508021627 84 0.0 0.0 0.00 0.00 0.00 35 971.8
20260508021127 84 0.0 0.0 0.00 0.00 0.00 35 971.9
20260508020627 84 0.0 0.0 0.00 0.00 0.00 36 971.9
20260508020126 84 0.0 0.0 0.00 0.00 0.00 36 971.8
20260508015627 84 0.0 0.0 0.00 0.00 0.00 36 971.8
20260508015126 84 0.0 0.0 0.00 0.00 0.00 36 971.8
20260508014626 84 0.0 0.0 0.00 0.00 0.00 36 971.8
20260508014126 84 0.0 0.0 0.00 0.00 0.00 35 971.7
20260508013626 84 0.0 0.0 0.00 0.00 0.00 36 971.7
20260508013126 84 0.0 0.0 0.00 0.00 0.00 36 971.7
20260508012626 84 0.0 0.0 0.00 0.00 0.00 36 971.7
20260508012125 84 0.0 0.0 0.00 0.00 0.00 35 971.7
20260508011626 84 0.0 0.0 0.00 0.00 0.00 35 971.7
20260508011126 84 0.0 0.0 0.00 0.00 0.00 35 971.8
20260508010625 84 0.0 0.0 0.00 0.00 0.00 35 971.8
20260508010125 84 0.0 0.0 0.00 0.00 0.00 36 971.8
20260508005625 84 0.0 0.0 0.00 0.00 0.00 35 971.8
20260508005126 84 0.0 0.0 0.00 0.00 0.00 35 971.8
20260508004626 84 0.0 0.0 0.00 0.00 0.00 35 971.8
20260508004125 84 0.0 0.0 0.00 0.00 0.00 36 971.8
20260508003625 84 0.0 0.0 0.00 0.00 0.00 35 971.8
20260508003126 84 0.0 0.0 0.00 0.00 0.00 35 971.8
20260508002625 84 0.0 0.0 0.00 0.00 0.00 35 971.8
20260508002125 84 0.0 0.0 0.00 0.00 0.00 36 971.8
20260508001625 84 0.0 0.0 0.00 0.00 0.00 35 971.8
20260508001126 84 0.0 0.0 0.00 0.00 0.00 35 971.9
20260508000626 85 0.0 0.0 0.00 0.00 0.00 35 971.9
20260508000126 84 0.0 0.0 0.00 0.00 0.00 35 971.8
20260507235626 84 0.0 0.0 0.00 0.00 0.00 35 971.9
20260507235125 84 0.0 0.0 0.00 0.00 0.00 36 971.9
20260507234625 84 0.0 0.0 0.00 0.00 0.00 35 971.9
20260507234126 84 0.0 0.0 0.00 0.00 0.00 35 971.9
20260507233626 84 0.0 0.0 0.00 0.00 0.00 36 971.9
20260507233125 84 0.0 0.0 0.00 0.00 0.00 35 971.9
20260507232625 84 0.0 0.0 0.00 0.00 0.00 35 971.9
20260507232125 84 0.0 0.0 0.00 0.00 0.00 35 971.9
20260507231625 84 0.0 0.0 0.00 0.00 0.00 35 971.9
20260507231125 84 0.0 0.0 0.00 0.00 0.00 35 971.9
20260507230625 84 0.0 0.0 0.00 0.00 0.00 36 971.9
20260507230125 84 0.0 0.0 0.00 0.00 0.00 36 971.9
20260507225625 84 0.0 0.0 0.00 0.00 0.00 35 971.9
20260507225125 84 0.0 0.0 0.00 0.00 0.00 35 971.8
20260507224625 84 0.0 0.0 0.00 0.00 0.00 35 971.8
20260507224125 84 0.0 0.0 0.00 0.00 0.00 36 971.8
20260507223625 84 0.0 0.0 0.00 0.00 0.00 35 971.8
20260507223124 84 0.0 0.0 0.00 0.00 0.00 36 971.8
20260507222624 84 0.0 0.0 0.00 0.00 0.00 35 971.7
20260507222125 84 0.0 0.0 0.00 0.00 0.00 35 971.8
20260507221624 84 0.0 0.0 0.00 0.00 0.00 35 971.8
20260507221124 84 0.0 0.0 0.00 0.00 0.00 35 971.9
20260507220624 84 0.0 0.0 0.00 0.00 0.00 35 971.8
20260507220124 84 0.0 0.0 0.00 0.00 0.00 35 971.7
20260507215624 84 0.0 0.0 0.00 0.00 0.00 35 971.8
20260507215124 84 0.0 0.0 0.00 0.00 0.00 35 971.9
20260507214624 84 0.0 0.0 0.00 0.00 0.00 35 971.7
20260507214124 85 0.0 0.0 0.00 0.00 0.00 35 971.7
20260507213625 84 0.0 0.0 0.00 0.00 0.00 35 971.7
20260507213124 85 0.0 0.0 0.00 0.00 0.00 35 971.8
20260507212624 85 0.0 0.0 0.00 0.00 0.00 35 971.8
20260507212124 85 0.0 0.0 0.00 0.00 0.00 35 971.9
20260507211624 85 0.0 0.0 0.00 0.00 0.00 35 971.8
20260507211124 85 0.0 0.0 0.00 0.00 0.00 35 971.6
20260507210624 85 0.0 0.0 0.00 0.00 0.00 35 971.7
20260507210124 85 0.0 0.0 0.00 0.00 0.00 35 971.7
20260507205624 85 0.0 0.0 0.00 0.00 0.00 35 971.6
20260507205118 85 0.0 0.0 0.00 0.00 0.00 35 971.5
20260507204617 85 0.0 0.0 0.00 0.00 0.00 35 971.6
20260507204154 85 0.0 0.0 0.00 0.00 0.00 35 971.6
20260507203617 85 0.0 0.0 0.00 0.00 0.00 35 971.5
20260507203117 85 0.0 0.0 0.00 0.00 0.00 35 971.5
20260507202617 85 0.0 0.0 0.00 0.00 0.00 35 971.4
20260507202117 85 0.0 0.0 0.00 0.00 0.00 35 971.5
20260507201617 85 0.0 0.0 0.00 0.00 0.00 35 971.5
20260507201116 85 0.0 0.0 0.00 0.00 0.00 35 971.4
20260507200616 85 0.0 0.0 0.00 0.00 0.00 35 971.3
20260507200117 85 0.0 0.0 0.00 0.00 0.00 35 971.3
20260507195617 85 0.0 0.0 0.00 0.00 0.00 35 971.3
20260507195116 85 0.0 0.0 0.00 0.00 0.00 35 971.3
20260507194616 85 0.0 0.0 0.00 0.00 0.00 35 971.2
20260507194116 85 0.0 0.0 0.00 0.00 0.00 35 971.2
20260507193616 85 0.0 0.0 0.00 0.00 0.00 34 971.2
20260507193116 85 0.0 0.0 0.00 0.00 0.00 35 971.1
20260507192616 85 0.0 0.0 0.00 0.00 0.00 35 971.1
20260507192115 85 0.0 0.0 0.00 0.00 0.00 35 971.2
20260507191615 85 0.0 0.0 0.00 0.00 0.00 34 971.1
20260507191115 85 0.0 0.0 0.00 0.00 0.00 34 971.1
20260507190615 85 0.0 0.0 0.00 0.00 0.00 34 971.1
20260507190115 85 0.0 0.0 0.00 0.00 0.00 35 970.9
20260507185616 86 0.0 0.0 0.00 0.00 0.00 34 970.9
20260507185115 86 0.0 0.0 0.00 0.00 0.00 34 970.8
20260507184615 86 0.0 0.0 0.00 0.00 0.00 34 970.7
20260507184115 86 0.0 0.0 0.00 0.00 0.00 34 970.7
20260507183616 86 0.0 0.0 0.00 0.00 0.00 33 970.6
20260507183116 87 0.0 0.0 0.00 0.00 0.00 34 970.7
20260507182615 87 0.0 0.0 0.00 0.00 0.00 33 970.6
20260507182115 88 0.0 0.0 0.00 0.00 0.00 33 970.5
20260507181615 89 0.0 0.0 0.00 0.00 0.00 33 970.6
20260507181115 90 0.0 0.0 0.00 0.00 0.00 33 970.4
20260507180615 91 0.0 0.0 0.00 0.00 0.00 33 970.4
20260507180115 91 0.0 0.0 0.00 0.00 0.00 32 970.4
20260507175615 92 0.0 0.0 0.00 0.00 0.00 33 970.4